EW0802 Weather Reports


Display with metric or nautical units.
time (UTC)temp
F
wind
direction
speed
MPH
gust
MPH
rain 1hr
in
rain 24hr
in
rain mn
in
humidity
%
barometer
mb
20260906014537 89 171 1.0 7.0 0.00 0.00 0.00 58 1009.7
20260906013036 90 161 2.0 10.0 0.00 0.00 0.00 57 1009.4
20260906011537 91 175 1.0 9.0 0.00 0.00 0.00 55 1009.2
20260906010035 92 188 2.0 13.0 0.00 0.00 0.00 52 1009.1
20260906004537 95 127 3.0 12.0 0.00 0.00 0.00 47 1009.0
20260906003035 96 119 0.0 4.0 0.00 0.00 0.00 43 1008.7
20260906001535 96 140 0.0 3.0 0.00 0.00 0.00 42 1008.7
20260906000034 97 45 2.0 5.0 0.00 0.00 0.00 41 1008.6
20260905234534 98 126 0.0 1.0 0.00 0.00 0.00 40 1008.5
20260905233032 99 93 0.0 1.0 0.00 0.00 0.00 39 1008.4
20260905231534 100 150 0.0 2.0 0.00 0.00 0.00 38 1008.6
20260905230031 100 178 2.0 8.0 0.00 0.00 0.00 37 1008.4
20260905224530 100 59 1.0 3.0 0.00 0.00 0.00 38 1008.4
20260905223030 100 130 0.0 3.0 0.00 0.00 0.00 38 1008.4
20260905221527 100 153 0.0 2.0 0.00 0.00 0.00 38 1008.5
20260905220029 101 115 0.0 2.0 0.00 0.00 0.00 38 1008.6
20260905214524 101 65 1.0 3.0 0.00 0.00 0.00 37 1008.8
20260905213023 101 252 1.0 3.0 0.00 0.00 0.00 37 1008.9
20260905211521 101 181 1.0 3.0 0.00 0.00 0.00 38 1009.2
20260905210017 101 360 1.0 3.0 0.00 0.00 0.00 39 1009.3
20260905204514 100 138 1.0 7.0 0.00 0.00 0.00 39 1009.4
20260905203011 100 71 2.0 6.0 0.00 0.00 0.00 38 1009.6
20260905201510 99 136 1.0 7.0 0.00 0.00 0.00 41 1009.7
20260905200009 99 59 0.0 3.0 0.00 0.00 0.00 40 1010.0
20260905194507 100 117 1.0 5.0 0.00 0.00 0.00 40 1010.3
20260905193002 98 290 0.0 8.0 0.00 0.00 0.00 42 1010.6
20260905191614 97 72 1.0 3.0 0.00 0.00 0.00 43 1010.8
20260905190057 98 140 0.0 2.0 0.00 0.00 0.00 43 1011.1
20260905184609 99 42 1.0 3.0 0.00 0.00 0.00 42 1011.3
20260905183054 98 163 2.0 6.0 0.00 0.00 0.00 42 1011.5
20260905181553 98 287 0.0 4.0 0.00 0.00 0.00 43 1011.8
20260905180053 98 284 0.0 3.0 0.00 0.00 0.00 44 1012.1
20260905174552 98 236 1.0 6.0 0.00 0.00 0.00 44 1012.3
20260905173045 98 68 0.0 6.0 0.00 0.00 0.00 44 1012.4
20260905171541 97 252 1.0 5.0 0.00 0.00 0.00 45 1012.5
20260905170036 96 276 0.0 3.0 0.00 0.00 0.00 48 1012.6
20260905164537 95 63 0.0 4.0 0.00 0.00 0.00 51 1012.9
20260905163027 94 229 1.0 3.0 0.00 0.00 0.00 52 1012.9
20260905161523 93 265 1.0 5.0 0.00 0.00 0.00 53 1012.8
20260905160036 93 66 0.0 4.0 0.00 0.00 0.00 54 1012.8
20260905154515 91 108 0.0 3.0 0.00 0.00 0.00 58 1012.8
20260905153012 89 161 1.0 4.0 0.00 0.00 0.00 59 1012.9
20260905151508 88 249 1.0 3.0 0.00 0.00 0.00 61 1012.7
20260905150003 86 159 0.0 3.0 0.00 0.00 0.00 66 1012.6
20260905144558 85 252 0.0 6.0 0.00 0.00 0.00 69 1012.7
20260905143053 83 267 0.0 4.0 0.00 0.00 0.00 73 1012.8
20260905141608 82 261 1.0 4.0 0.00 0.00 0.00 76 1012.7
20260905140055 80 249 0.0 0.0 0.00 0.00 0.00 79 1012.7
20260905134551 79 266 0.0 0.0 0.00 0.00 0.00 80 1012.5
20260905133051 79 174 0.0 0.0 0.00 0.00 0.00 80 1012.4
20260905131552 78 162 0.0 0.0 0.00 0.00 0.00 81 1012.4
20260905130035 78 147 0.0 3.0 0.00 0.00 0.00 81 1012.2
20260905124533 77 173 0.0 3.0 0.00 0.00 0.00 81 1011.8
20260905123031 77 165 0.0 2.0 0.00 0.00 0.00 81 1011.7
20260905121528 77 135 0.0 1.0 0.00 0.00 0.00 80 1011.9
20260905120028 77 136 0.0 1.0 0.00 0.00 0.00 80 1011.8
20260905114538 77 167 0.0 1.0 0.00 0.00 0.00 80 1011.8
20260905113024 78 167 0.0 0.0 0.00 0.00 0.00 79 1011.8
20260905111523 78 170 0.0 1.0 0.00 0.00 0.00 79 1011.7
20260905110023 78 175 0.0 0.0 0.00 0.00 0.00 78 1011.7
20260905104520 79 175 0.0 0.0 0.00 0.00 0.00 78 1011.6
20260905103029 79 175 0.0 0.0 0.00 0.00 0.00 78 1011.8
20260905101517 79 175 0.0 0.0 0.00 0.00 0.00 77 1011.7
20260905100016 79 145 0.0 1.0 0.00 0.00 0.00 77 1011.5
20260905094514 80 123 0.0 1.0 0.00 0.00 0.00 76 1011.6
20260905093013 80 141 0.0 0.0 0.00 0.00 0.00 75 1011.4
20260905091512 80 141 0.0 0.0 0.00 0.00 0.00 75 1011.4
20260905090010 81 141 0.0 3.0 0.00 0.00 0.00 74 1011.3
20260905084514 81 180 0.0 1.0 0.00 0.00 0.00 73 1011.2
20260905083007 82 142 0.0 2.0 0.00 0.00 0.00 72 1011.2
20260905081504 82 203 0.0 2.0 0.00 0.00 0.00 71 1011.3
20260905080003 83 156 0.0 0.0 0.00 0.00 0.00 70 1011.2
20260905074505 83 153 0.0 4.0 0.00 0.00 0.00 70 1011.1
20260905073107 83 226 0.0 3.0 0.00 0.00 0.00 70 1011.2
20260905071558 83 177 1.0 6.0 0.00 0.00 0.00 69 1011.3
20260905070056 84 188 0.0 0.0 0.00 0.00 0.00 68 1011.5
20260905064609 84 151 0.0 4.0 0.00 0.00 0.00 67 1011.5
20260905063058 85 261 0.0 5.0 0.00 0.00 0.00 67 1011.7
20260905061613 85 170 0.0 5.0 0.00 0.00 0.00 65 1011.7
20260905060051 85 169 1.0 6.0 0.00 0.00 0.00 65 1011.7
20260905054548 86 125 0.0 5.0 0.00 0.00 0.00 64 1011.5
20260905053045 86 142 1.0 5.0 0.00 0.00 0.00 63 1011.4
20260905051559 86 87 2.0 7.0 0.00 0.00 0.00 63 1011.4
20260905050041 87 120 1.0 6.0 0.00 0.00 0.00 62 1011.4
20260905044551 87 154 2.0 6.0 0.00 0.00 0.00 61 1011.3
20260905043039 87 169 3.0 9.0 0.00 0.00 0.00 60 1011.4
20260905041539 88 78 1.0 4.0 0.00 0.00 0.00 59 1011.3
20260905040047 88 136 2.0 9.0 0.00 0.00 0.00 58 1011.4
20260905034555 89 198 2.0 9.0 0.00 0.00 0.00 58 1011.4
20260905033056 89 137 1.0 9.0 0.00 0.00 0.00 57 1011.5
20260905031538 89 170 0.0 7.0 0.00 0.00 0.00 56 1011.3
20260905030037 90 171 2.0 7.0 0.00 0.00 0.00 55 1011.2
20260905024545 90 170 2.0 7.0 0.00 0.00 0.00 53 1011.0
20260905023108 91 219 1.0 5.0 0.00 0.00 0.00 51 1010.7
20260905021535 91 98 1.0 5.0 0.00 0.00 0.00 49 1010.5
20260905020035 92 171 1.0 4.0 0.00 0.00 0.00 48 1010.2